Simultaneous Nadir Overpasses (SNOs) Predictions

Prediction of SNOs between LANDSAT-8 and NOAA-19 Satellite Orbit:

Table of predicted SNOs for the next 14.0 days since TLE Epoch: 12/5/2016
Index Date (LANDSAT-8) Time (LANDSAT-8) Lat,Lon (LANDSAT-8) SZA (LANDSAT-8 ) Date (NOAA-19) Time (NOAA-19) Lat,Lon (NOAA-19) SZA (NOAA-19 ) Distance(km) Time Diff (sec)
1 12/06/2016 09:19:11 -75.44,-133.12 81.93 12/06/2016 09:18:44 -75.43,-133.14 81.94 1.50 27
2 12/06/2016 10:08:38 75.37, 34.33 98.01 12/06/2016 10:09:46 75.38, 34.27 98.02 1.78 68
3 12/08/2016 14:52:54 75.42, -36.60 98.29 12/08/2016 14:52:43 75.45, -36.64 98.31 3.05 11
4 12/08/2016 15:42:25 -75.25, 130.56 81.90 12/08/2016 15:43:37 -75.21, 131.39 81.90 23.99 72
5 12/10/2016 20:26:38 -75.45, 60.04 81.50 12/10/2016 20:26:38 -75.43, 59.99 81.51 2.24 0
6
